Location: *
(42.0175°N, 9.4056°E)
Time: 23:46:27
(UTC+00:00)

SPOT 5 - Pass Details

Date: 25 August 2019
Orbit: 624 x 814 km, 98.3° (Epoch: 18 October)

Event Time Altitude Azimuth Distance (km) Brightness Sun altitude
Exits shadow 21:35:04 31° 311° (NW) 1,107 4.3 -31.7°
Drops below altitude 10° 21:37:39 10° 334° (NNW) 2,017 6.0 -31.9°
Sets 21:39:57 0° 341° (NNW) 2,944 7.1 -32.2°
